"read_dt","SO2 (ppb)","flags","PMT voltage (V)","lamp voltage (V)","lamp intensity (Hz)","internal temp (C)","react chamber temp (C)","sample flow (l/min)","pres (mmHg)","SO2 bkg (ppb)","SO2 coefficient"
2015-03-09 00:00:00,2014E-3,5C000000,-0724,0837,12105,028.4,045.4,0.454,743.4,01.18,0.508
2015-03-09 00:01:00,2219E-3,5C000000,-0724,0838,11936,028.4,045.4,0.454,743.3,01.18,0.508
2015-03-09 00:02:00,2090E-3,5C000000,-0724,0838,12066,028.4,045.4,0.454,743.4,01.18,0.508
2015-03-09 00:03:00,2134E-3,5C000000,-0724,0837,12100,028.4,045.4,0.454,743.3,01.18,0.508
2015-03-09 00:04:00,2125E-3,5C000000,-0724,0838,12158,028.4,045.5,0.454,743.4,01.18,0.508
2015-03-09 00:05:00,2136E-3,5C000000,-0724,0838,12051,028.4,045.4,0.454,743.4,01.18,0.508
2015-03-09 00:06:00,2245E-3,5C000000,-0724,0838,12168,028.4,045.5,0.454,743.4,01.18,0.508
2015-03-09 00:07:00,2118E-3,5C000000,-0724,0838,12083,028.4,045.5,0.454,743.4,01.18,0.508
2015-03-09 00:08:00,2152E-3,5C000000,-0724,0837,12092,028.4,045.4,0.454,743.5,01.18,0.508
2015-03-09 00:09:00,2248E-3,5C000000,-0724,0838,12154,028.4,045.4,0.454,743.3,01.18,0.508
2015-03-09 00:10:00,2160E-3,5C000000,-0724,0838,12179,028.4,045.4,0.454,743.5,01.18,0.508
2015-03-09 00:11:00,2084E-3,5C000000,-0724,0838,12129,028.5,045.4,0.454,743.6,01.18,0.508
2015-03-09 00:12:00,2078E-3,5C000000,-0724,0837,12162,028.4,045.5,0.454,743.4,01.18,0.508
2015-03-09 00:13:00,2166E-3,5C000000,-0724,0838,12056,028.4,045.5,0.453,743.4,01.18,0.508
2015-03-09 00:14:00,2013E-3,5C000000,-0724,0838,12098,028.4,045.5,0.453,743.2,01.18,0.508
2015-03-09 00:15:00,2116E-3,5C000000,-0724,0838,12058,028.4,045.4,0.454,743.4,01.18,0.508
2015-03-09 00:16:00,2148E-3,5C000000,-0724,0838,12088,028.5,045.4,0.454,743.7,01.18,0.508
2015-03-09 00:17:00,2141E-3,5C000000,-0724,0838,12105,028.4,045.5,0.454,743.4,01.18,0.508
2015-03-09 00:18:00,2037E-3,5C000000,-0724,0838,12046,028.4,045.5,0.454,743.4,01.18,0.508
2015-03-09 00:19:00,2100E-3,5C000000,-0724,0839,12161,028.5,045.4,0.454,743.6,01.18,0.508
2015-03-09 00:20:00,2126E-3,5C000000,-0724,0837,12107,028.4,045.4,0.454,743.7,01.18,0.508
2015-03-09 00:21:00,2156E-3,5C000000,-0724,0838,12149,028.4,045.4,0.454,743.6,01.18,0.508
2015-03-09 00:22:00,1905E-3,5C000000,-0724,0838,11921,028.4,045.5,0.454,743.5,01.18,0.508
2015-03-09 00:23:00,2002E-3,5C000000,-0724,0837,12139,028.4,045.5,0.454,743.5,01.18,0.508
2015-03-09 00:24:00,2118E-3,5C000000,-0724,0838,12122,028.5,045.4,0.453,743.5,01.18,0.508
2015-03-09 00:25:00,2180E-3,5C000000,-0724,0838,12120,028.4,045.5,0.454,743.3,01.18,0.508
2015-03-09 00:26:00,2224E-3,5C000000,-0724,0838,12248,028.4,045.4,0.454,743.5,01.18,0.508
2015-03-09 00:27:00,2134E-3,5C000000,-0724,0838,12040,028.4,045.4,0.454,743.7,01.18,0.508
2015-03-09 00:28:00,2194E-3,5C000000,-0724,0837,12153,028.4,045.5,0.454,743.5,01.18,0.508
2015-03-09 00:29:00,2053E-3,5C000000,-0724,0837,12038,028.5,045.5,0.454,743.5,01.18,0.508
2015-03-09 00:30:00,2219E-3,5C000000,-0724,0837,12161,028.5,045.5,0.453,743.1,01.18,0.508
2015-03-09 00:31:00,1908E-3,5C000000,-0724,0838,11946,028.5,045.5,0.454,743.1,01.18,0.508
2015-03-09 00:32:00,2140E-3,5C000000,-0724,0839,12108,028.4,045.4,0.454,743.4,01.18,0.508
2015-03-09 00:33:00,2211E-3,5C000000,-0724,0838,11992,028.5,045.4,0.454,743.3,01.18,0.508
2015-03-09 00:34:00,2064E-3,5C000000,-0724,0838,12099,028.5,045.4,0.454,743.5,01.18,0.508
2015-03-09 00:35:00,2117E-3,5C000000,-0724,0838,12078,028.4,045.4,0.454,743.5,01.18,0.508
2015-03-09 00:36:00,2048E-3,5C000000,-0724,0838,12060,028.4,045.5,0.454,743.4,01.18,0.508
2015-03-09 00:37:00,2113E-3,5C000000,-0724,0839,12114,028.5,045.4,0.454,743.5,01.18,0.508
2015-03-09 00:38:00,2065E-3,5C000000,-0724,0837,12034,028.4,045.4,0.454,743.5,01.18,0.508
2015-03-09 00:39:00,1986E-3,5C000000,-0724,0837,12156,028.4,045.4,0.454,743.5,01.18,0.508
2015-03-09 00:40:00,2219E-3,5C000000,-0724,0838,12007,028.4,045.4,0.454,743.6,01.18,0.508
2015-03-09 00:41:00,2072E-3,5C000000,-0724,0837,12121,028.4,045.4,0.454,743.5,01.18,0.508
2015-03-09 00:42:00,2069E-3,5C000000,-0724,0838,12094,028.5,045.4,0.454,743.5,01.18,0.508
2015-03-09 00:43:00,2099E-3,5C000000,-0724,0837,12065,028.4,045.4,0.454,743.5,01.18,0.508
2015-03-09 00:44:00,2057E-3,5C000000,-0724,0838,11996,028.5,045.4,0.454,743.7,01.18,0.508
2015-03-09 00:45:00,2260E-3,5C000000,-0724,0838,12167,028.5,045.5,0.454,743.5,01.18,0.508
2015-03-09 00:46:00,2076E-3,5C000000,-0724,0838,12054,028.5,045.4,0.454,743.5,01.18,0.508
2015-03-09 00:47:00,2053E-3,5C000000,-0724,0838,12064,028.5,045.4,0.454,743.7,01.18,0.508
2015-03-09 00:48:00,1986E-3,5C000000,-0724,0837,12113,028.4,045.5,0.454,743.4,01.18,0.508
2015-03-09 00:49:00,1973E-3,5C000000,-0724,0838,12054,028.5,045.4,0.454,743.5,01.18,0.508
2015-03-09 00:50:00,2118E-3,5C000000,-0724,0837,12113,028.5,045.5,0.454,743.5,01.18,0.508
2015-03-09 00:51:00,2022E-3,5C000000,-0724,0838,12207,028.5,045.5,0.454,743.4,01.18,0.508
2015-03-09 00:52:00,2129E-3,5C000000,-0724,0837,12294,028.5,045.4,0.454,743.4,01.18,0.508
2015-03-09 00:53:00,2090E-3,5C000000,-0724,0838,12162,028.5,045.4,0.454,743.5,01.18,0.508
2015-03-09 00:54:00,2080E-3,5C000000,-0724,0838,12269,028.5,045.4,0.454,743.7,01.18,0.508
2015-03-09 00:55:00,2027E-3,5C000000,-0724,0837,12011,028.5,045.4,0.454,743.4,01.18,0.508
2015-03-09 00:56:00,2005E-3,5C000000,-0724,0837,12129,028.5,045.5,0.454,743.4,01.18,0.508
2015-03-09 00:57:00,1989E-3,5C000000,-0724,0837,12022,028.5,045.5,0.454,743.5,01.18,0.508
2015-03-09 00:58:00,2231E-3,5C000000,-0724,0836,12074,028.4,045.4,0.454,743.5,01.18,0.508
2015-03-09 00:59:00,2031E-3,5C000000,-0724,0837,12151,028.5,045.4,0.454,743.6,01.18,0.508
2015-03-09 01:00:00,2094E-3,5C000000,-0724,0838,12240,028.5,045.4,0.454,743.5,01.18,0.508
2015-03-09 01:01:00,2202E-3,5C000000,-0724,0837,12102,028.5,045.5,0.454,743.7,01.18,0.508
2015-03-09 01:02:00,1902E-3,5C000000,-0724,0837,12174,028.5,045.5,0.454,743.7,01.18,0.508
2015-03-09 01:03:00,2057E-3,5C000000,-0724,0838,12110,028.5,045.5,0.454,743.7,01.18,0.508
2015-03-09 01:04:00,2108E-3,5C000000,-0724,0837,12191,028.5,045.4,0.454,743.5,01.18,0.508
2015-03-09 01:05:00,2052E-3,5C000000,-0724,0837,12169,028.5,045.4,0.454,743.5,01.18,0.508
2015-03-09 01:06:00,2004E-3,5C000000,-0724,0837,12147,028.4,045.4,0.454,743.5,01.18,0.508
2015-03-09 01:07:00,2009E-3,5C000000,-0724,0836,12180,028.5,045.5,0.454,743.4,01.18,0.508
2015-03-09 01:08:00,2114E-3,5C000000,-0724,0836,12019,028.5,045.5,0.454,743.5,01.18,0.508
2015-03-09 01:09:00,2124E-3,5C000000,-0724,0837,12047,028.5,045.5,0.454,743.3,01.18,0.508
2015-03-09 01:10:00,2128E-3,5C000000,-0724,0836,12129,028.5,045.4,0.454,743.7,01.18,0.508
2015-03-09 01:11:00,1960E-3,5C000000,-0724,0837,12160,028.5,045.4,0.454,743.5,01.18,0.508
2015-03-09 01:12:00,1892E-3,5C000000,-0724,0837,12167,028.5,045.4,0.454,743.5,01.18,0.508
2015-03-09 01:13:00,2135E-3,5C000000,-0724,0838,11988,028.5,045.4,0.454,743.5,01.18,0.508
2015-03-09 01:14:00,2096E-3,5C000000,-0724,0837,12110,028.5,045.4,0.454,743.5,01.18,0.508
2015-03-09 01:15:00,2048E-3,5C000000,-0724,0836,12151,028.5,045.5,0.454,743.5,01.18,0.508
2015-03-09 01:16:00,1937E-3,5C000000,-0724,0837,12256,028.5,045.4,0.454,743.5,01.18,0.508
2015-03-09 01:17:00,2058E-3,5C000000,-0724,0837,12069,028.5,045.5,0.454,743.4,01.18,0.508
2015-03-09 01:18:00,2126E-3,5C000000,-0724,0838,12166,028.5,045.5,0.454,743.4,01.18,0.508
2015-03-09 01:19:00,2037E-3,5C000000,-0724,0837,12255,028.5,045.4,0.454,743.4,01.18,0.508
2015-03-09 01:20:00,2022E-3,5C000000,-0724,0837,12245,028.5,045.4,0.454,743.3,01.18,0.508
2015-03-09 01:21:00,2141E-3,5C000000,-0724,0836,12297,028.5,045.5,0.454,743.3,01.18,0.508
2015-03-09 01:22:00,2028E-3,5C000000,-0724,0837,12188,028.5,045.5,0.454,743.3,01.18,0.508
2015-03-09 01:23:00,2161E-3,5C000000,-0724,0839,12225,028.5,045.5,0.454,743.4,01.18,0.508
2015-03-09 01:24:00,2033E-3,5C000000,-0724,0837,12186,028.5,045.4,0.454,743.4,01.18,0.508
2015-03-09 01:25:00,2054E-3,5C000000,-0724,0837,11983,028.5,045.4,0.454,743.6,01.18,0.508
2015-03-09 01:26:00,1970E-3,5C000000,-0724,0837,11968,028.5,045.4,0.454,743.4,01.18,0.508
2015-03-09 01:27:00,2195E-3,5C000000,-0724,0839,12183,028.5,045.5,0.454,743.5,01.18,0.508
2015-03-09 01:28:00,2013E-3,5C000000,-0724,0838,11925,028.5,045.4,0.453,743.5,01.18,0.508
2015-03-09 01:29:00,2161E-3,5C000000,-0724,0838,12258,028.5,045.4,0.453,743.5,01.18,0.508
2015-03-09 01:30:00,2149E-3,5C000000,-0724,0838,12073,028.5,045.4,0.453,743.5,01.18,0.508
2015-03-09 01:31:00,2033E-3,5C000000,-0724,0838,12075,028.5,045.4,0.453,743.3,01.18,0.508
2015-03-09 01:32:00,2146E-3,5C000000,-0724,0838,12007,028.5,045.5,0.453,743.5,01.18,0.508
2015-03-09 01:33:00,2194E-3,5C000000,-0724,0838,12057,028.5,045.5,0.453,743.4,01.18,0.508
2015-03-09 01:34:00,2206E-3,5C000000,-0724,0838,12018,028.5,045.4,0.453,743.5,01.18,0.508
2015-03-09 01:35:00,2241E-3,5C000000,-0724,0838,12201,028.5,045.4,0.453,743.5,01.18,0.508
2015-03-09 01:36:00,2196E-3,5C000000,-0724,0838,10933,028.6,045.4,0.453,743.4,01.18,0.508
2015-03-09 01:37:00,2180E-3,5C000000,-0724,0838,12227,028.5,045.5,0.453,743.4,01.18,0.508
2015-03-09 01:38:00,2202E-3,5C000000,-0724,0836,12197,028.6,045.4,0.453,743.5,01.18,0.508
2015-03-09 01:39:00,2184E-3,5C000000,-0724,0838,12096,028.5,045.4,0.453,743.4,01.18,0.508
2015-03-09 01:40:00,2182E-3,5C000000,-0724,0838,12119,028.6,045.5,0.453,743.5,01.18,0.508
2015-03-09 01:41:00,2096E-3,5C000000,-0724,0838,12091,028.6,045.4,0.453,743.5,01.18,0.508
2015-03-09 01:42:00,2054E-3,5C000000,-0724,0837,12171,028.5,045.4,0.453,743.4,01.18,0.508
2015-03-09 01:43:00,2119E-3,5C000000,-0724,0837,12295,028.6,045.5,0.453,743.4,01.18,0.508
2015-03-09 01:44:00,2175E-3,5C000000,-0724,0837,12086,028.5,045.5,0.453,743.5,01.18,0.508
2015-03-09 01:45:00,2205E-3,5C000000,-0724,0836,12159,028.5,045.4,0.453,743.5,01.18,0.508
2015-03-09 01:46:00,2076E-3,5C000000,-0724,0837,12002,028.6,045.5,0.453,743.3,01.18,0.508
2015-03-09 01:47:00,2116E-3,5C000000,-0724,0837,12081,028.6,045.5,0.453,743.5,01.18,0.508
2015-03-09 01:48:00,2200E-3,5C000000,-0724,0837,12240,028.6,045.5,0.453,743.5,01.18,0.508
2015-03-09 01:49:00,2094E-3,5C000000,-0724,0838,12168,028.6,045.4,0.453,743.4,01.18,0.508
2015-03-09 01:50:00,2141E-3,5C000000,-0724,0836,12215,028.6,045.4,0.453,743.2,01.18,0.508
2015-03-09 01:51:00,2106E-3,5C000000,-0724,0838,12109,028.6,045.4,0.453,743.5,01.18,0.508
2015-03-09 01:52:00,2271E-3,5C000000,-0724,0837,12269,028.6,045.5,0.453,743.8,01.18,0.508
2015-03-09 01:53:00,2093E-3,5C000000,-0724,0837,12270,028.6,045.5,0.453,743.3,01.18,0.508
2015-03-09 01:54:00,2147E-3,5C000000,-0724,0836,12066,028.6,045.5,0.453,743.6,01.18,0.508
2015-03-09 01:55:00,2250E-3,5C000000,-0724,0838,12084,028.6,045.5,0.453,743.6,01.18,0.508
2015-03-09 01:56:00,2170E-3,5C000000,-0724,0836,12115,028.6,045.4,0.453,743.5,01.18,0.508
2015-03-09 01:57:00,2305E-3,5C000000,-0724,0837,12026,028.6,045.4,0.453,743.3,01.18,0.508
2015-03-09 01:58:00,2223E-3,5C000000,-0724,0837,12132,028.6,045.4,0.453,743.6,01.18,0.508
2015-03-09 01:59:00,2115E-3,5C000000,-0724,0837,12149,028.6,045.5,0.453,743.5,01.18,0.508
2015-03-09 02:00:00,2109E-3,5C000000,-0724,0839,12173,028.6,045.5,0.453,743.5,01.18,0.508
2015-03-09 02:01:00,2086E-3,5C000000,-0724,0836,12255,028.6,045.4,0.453,743.7,01.18,0.508
2015-03-09 02:02:00,2185E-3,5C000000,-0724,0837,12200,028.6,045.5,0.453,743.7,01.18,0.508
2015-03-09 02:03:00,2150E-3,5C000000,-0724,0836,12134,028.6,045.5,0.453,743.6,01.18,0.508
2015-03-09 02:04:00,2108E-3,5C000000,-0724,0839,12079,028.7,045.5,0.453,743.5,01.18,0.508
2015-03-09 02:05:00,2185E-3,5C000000,-0724,0836,12137,028.7,045.5,0.453,743.7,01.18,0.508
2015-03-09 02:06:00,2026E-3,5C000000,-0724,0838,12097,028.6,045.4,0.453,743.7,01.18,0.508
2015-03-09 02:07:00,1999E-3,5C000000,-0724,0838,12044,028.6,045.4,0.453,743.8,01.18,0.508
2015-03-09 02:08:00,2060E-3,5C000000,-0724,0838,12143,028.7,045.5,0.453,743.7,01.18,0.508
2015-03-09 02:09:00,2122E-3,5C000000,-0724,0837,12089,028.7,045.5,0.453,743.7,01.18,0.508
2015-03-09 02:10:00,2270E-3,5C000000,-0724,0837,12136,028.7,045.5,0.453,743.7,01.18,0.508
2015-03-09 02:11:00,2209E-3,5C000000,-0724,0837,12330,028.7,045.4,0.453,743.7,01.18,0.508
2015-03-09 02:12:00,2042E-3,5C000000,-0724,0837,12113,028.7,045.4,0.453,743.7,01.18,0.508
2015-03-09 02:13:00,2088E-3,5C000000,-0724,0837,12081,028.7,045.4,0.453,743.6,01.18,0.508
2015-03-09 02:14:00,2270E-3,5C000000,-0724,0839,12157,028.7,045.5,0.453,743.7,01.18,0.508
2015-03-09 02:15:00,2218E-3,5C000000,-0724,0838,12185,028.7,045.5,0.453,743.6,01.18,0.508
2015-03-09 02:16:00,2163E-3,5C000000,-0724,0838,12033,028.8,045.4,0.453,743.6,01.18,0.508
2015-03-09 02:17:00,2094E-3,5C000000,-0724,0838,11999,028.7,045.5,0.454,743.7,01.18,0.508
2015-03-09 02:18:00,2096E-3,5C000000,-0724,0837,12034,028.7,045.4,0.454,743.7,01.18,0.508
2015-03-09 02:19:00,2000E-3,5C000000,-0724,0838,12215,028.8,045.5,0.454,743.7,01.18,0.508
2015-03-09 02:20:00,2196E-3,5C000000,-0724,0836,12131,028.8,045.5,0.454,743.6,01.18,0.508
2015-03-09 02:21:00,2065E-3,5C000000,-0724,0838,12043,028.8,045.5,0.454,743.5,01.18,0.508
2015-03-09 02:22:00,2105E-3,5C000000,-0724,0837,11978,028.8,045.5,0.454,743.6,01.18,0.508
2015-03-09 02:23:00,2186E-3,5C000000,-0724,0838,12034,028.8,045.5,0.454,743.6,01.18,0.508
2015-03-09 02:24:00,2101E-3,5C000000,-0724,0837,12173,028.8,045.5,0.453,743.6,01.18,0.508
2015-03-09 02:25:00,1977E-3,5C000000,-0724,0837,12194,028.8,045.5,0.453,743.7,01.18,0.508
2015-03-09 02:26:00,2073E-3,5C000000,-0724,0837,11938,028.8,045.5,0.453,743.6,01.18,0.508
2015-03-09 02:27:00,2070E-3,5C000000,-0724,0837,12258,028.8,045.5,0.453,743.6,01.18,0.508
2015-03-09 02:28:00,2197E-3,5C000000,-0724,0836,12240,028.8,045.5,0.453,743.5,01.18,0.508
2015-03-09 02:29:00,2120E-3,5C000000,-0724,0836,12209,028.9,045.5,0.453,743.5,01.18,0.508
2015-03-09 02:30:00,2174E-3,5C000000,-0724,0836,12097,028.8,045.5,0.453,743.6,01.18,0.508
2015-03-09 02:31:00,2108E-3,5C000000,-0724,0837,12091,028.9,045.5,0.453,743.6,01.18,0.508
2015-03-09 02:32:00,2137E-3,5C000000,-0724,0838,12151,028.9,045.5,0.453,743.9,01.18,0.508
2015-03-09 02:33:00,2021E-3,5C000000,-0724,0837,12089,028.9,045.5,0.453,743.7,01.18,0.508
2015-03-09 02:34:00,2080E-3,5C000000,-0724,0838,12141,028.9,045.5,0.453,743.8,01.18,0.508
2015-03-09 02:35:00,2128E-3,5C000000,-0724,0838,11963,028.9,045.4,0.453,743.8,01.18,0.508
2015-03-09 02:36:00,2012E-3,5C000000,-0724,0837,12011,028.9,045.5,0.453,743.7,01.18,0.508
2015-03-09 02:37:00,2228E-3,5C000000,-0724,0837,12375,028.9,045.5,0.453,743.6,01.18,0.508
2015-03-09 02:38:00,2166E-3,5C000000,-0724,0837,12179,028.9,045.5,0.453,743.7,01.18,0.508
2015-03-09 02:39:00,2041E-3,5C000000,-0724,0837,12091,028.9,045.5,0.453,743.6,01.18,0.508
2015-03-09 02:40:00,2043E-3,5C000000,-0724,0838,11818,029.0,045.5,0.453,743.6,01.18,0.508
2015-03-09 02:41:00,2249E-3,5C000000,-0724,0838,11866,029.0,045.4,0.453,743.7,01.18,0.508
2015-03-09 02:42:00,2119E-3,5C000000,-0724,0837,12144,029.0,045.5,0.453,743.7,01.18,0.508
2015-03-09 02:43:00,2011E-3,5C000000,-0724,0836,12168,029.0,045.5,0.453,743.7,01.18,0.508
2015-03-09 02:44:00,2072E-3,5C000000,-0724,0837,12147,029.0,045.5,0.453,743.6,01.18,0.508
2015-03-09 02:45:00,2107E-3,5C000000,-0724,0837,12075,029.0,045.5,0.453,743.5,01.18,0.508
2015-03-09 02:46:00,2095E-3,5C000000,-0724,0837,12113,029.0,045.5,0.453,743.5,01.18,0.508
2015-03-09 02:47:00,2182E-3,5C000000,-0724,0836,12178,029.0,045.5,0.453,743.5,01.18,0.508
2015-03-09 02:48:00,2040E-3,5C000000,-0724,0837,12100,029.0,045.5,0.453,743.6,01.18,0.508
2015-03-09 02:49:00,2085E-3,5C000000,-0724,0837,12047,029.0,045.5,0.453,743.7,01.18,0.508
2015-03-09 02:50:00,2155E-3,5C000000,-0724,0836,12162,029.0,045.5,0.453,743.6,01.18,0.508
2015-03-09 02:51:00,2176E-3,5C000000,-0724,0837,12106,029.1,045.5,0.453,743.7,01.18,0.508
2015-03-09 02:52:00,2287E-3,5C000000,-0724,0837,12140,029.0,045.5,0.453,743.7,01.18,0.508
2015-03-09 02:53:00,2109E-3,5C000000,-0724,0837,12202,029.1,045.5,0.453,743.8,01.18,0.508
2015-03-09 02:54:00,2030E-3,5C000000,-0724,0837,12060,029.1,045.5,0.453,743.9,01.18,0.508
2015-03-09 02:55:00,2199E-3,5C000000,-0724,0837,12069,029.1,045.4,0.453,743.7,01.18,0.508
2015-03-09 02:56:00,2141E-3,5C000000,-0724,0837,12051,029.1,045.5,0.453,743.4,01.18,0.508
2015-03-09 02:57:00,2289E-3,5C000000,-0724,0837,11992,029.1,045.5,0.453,743.5,01.18,0.508
2015-03-09 02:58:00,2134E-3,5C000000,-0724,0838,12199,029.1,045.5,0.453,743.6,01.18,0.508
2015-03-09 02:59:00,2078E-3,5C000000,-0724,0837,12004,029.1,045.5,0.453,743.9,01.18,0.508
2015-03-09 03:00:00,2065E-3,5C000000,-0724,0838,12201,029.1,045.5,0.453,743.7,01.18,0.508
2015-03-09 03:01:00,2091E-3,5C000000,-0724,0837,11991,029.1,045.5,0.453,743.8,01.18,0.508
2015-03-09 03:02:00,1957E-3,5C000000,-0724,0838,12173,029.1,045.5,0.453,743.8,01.18,0.508
2015-03-09 03:03:00,2096E-3,5C000000,-0724,0838,12185,029.1,045.5,0.453,743.8,01.18,0.508
2015-03-09 03:04:00,1993E-3,5C000000,-0724,0838,12056,029.2,045.5,0.453,743.8,01.18,0.508
2015-03-09 03:05:00,2179E-3,5C000000,-0724,0837,12041,029.1,045.5,0.453,743.8,01.18,0.508
2015-03-09 03:06:00,2017E-3,5C000000,-0724,0838,12103,029.1,045.5,0.453,743.9,01.18,0.508
2015-03-09 03:07:00,2087E-3,5C000000,-0724,0837,12141,029.2,045.5,0.453,744.0,01.18,0.508
2015-03-09 03:08:00,2077E-3,5C000000,-0724,0839,12088,029.2,045.5,0.453,744.0,01.18,0.508
2015-03-09 03:09:00,2184E-3,5C000000,-0724,0838,12148,029.2,045.5,0.453,743.9,01.18,0.508
2015-03-09 03:10:00,2036E-3,5C000000,-0724,0838,12206,029.2,045.5,0.453,743.8,01.18,0.508
2015-03-09 03:11:00,2120E-3,5C000000,-0724,0838,11923,029.2,045.5,0.453,743.8,01.18,0.508
2015-03-09 03:12:00,2207E-3,5C000000,-0724,0837,12072,029.2,045.5,0.453,743.9,01.18,0.508
2015-03-09 03:13:00,2222E-3,5C000000,-0724,0838,12237,029.2,045.5,0.453,743.9,01.18,0.508
2015-03-09 03:14:00,2127E-3,5C000000,-0724,0838,12030,029.2,045.5,0.453,743.9,01.18,0.508
2015-03-09 03:15:00,2122E-3,5C000000,-0724,0837,12141,029.2,045.5,0.453,744.0,01.18,0.508
2015-03-09 03:16:00,2259E-3,5C000000,-0724,0838,12062,029.3,045.5,0.453,743.9,01.18,0.508
2015-03-09 03:17:00,2152E-3,5C000000,-0724,0838,12122,029.3,045.5,0.453,744.0,01.18,0.508
2015-03-09 03:18:00,2096E-3,5C000000,-0724,0838,12176,029.3,045.5,0.453,744.0,01.18,0.508
2015-03-09 03:19:00,2160E-3,5C000000,-0724,0838,12145,029.3,045.5,0.453,743.9,01.18,0.508
2015-03-09 03:20:00,2183E-3,5C000000,-0724,0838,12237,029.3,045.5,0.453,743.9,01.18,0.508
2015-03-09 03:21:00,2020E-3,5C000000,-0724,0838,12195,029.3,045.5,0.453,744.0,01.18,0.508
2015-03-09 03:22:00,2224E-3,5C000000,-0724,0837,12053,029.3,045.5,0.453,743.9,01.18,0.508
2015-03-09 03:23:00,2216E-3,5C000000,-0724,0837,12233,029.3,045.5,0.453,744.0,01.18,0.508
2015-03-09 03:24:00,2154E-3,5C000000,-0724,0838,12150,029.3,045.5,0.453,744.0,01.18,0.508
2015-03-09 03:25:00,2070E-3,5C000000,-0724,0837,12132,029.3,045.5,0.453,743.8,01.18,0.508
2015-03-09 03:26:00,2177E-3,5C000000,-0724,0838,12200,029.3,045.5,0.452,744.0,01.18,0.508
2015-03-09 03:27:00,2178E-3,5C000000,-0724,0838,12208,029.4,045.5,0.452,743.9,01.18,0.508
2015-03-09 03:28:00,2183E-3,5C000000,-0724,0837,12133,029.4,045.5,0.453,743.9,01.18,0.508
2015-03-09 03:29:00,2079E-3,5C000000,-0724,0840,12190,029.4,045.5,0.453,743.9,01.18,0.508
2015-03-09 03:30:00,2139E-3,5C000000,-0724,0838,11975,029.4,045.5,0.453,744.0,01.18,0.508
2015-03-09 03:31:00,2036E-3,5C000000,-0724,0838,12124,029.4,045.5,0.452,743.9,01.18,0.508
2015-03-09 03:32:00,2085E-3,5C000000,-0724,0838,12146,029.4,045.5,0.452,743.8,01.18,0.508
2015-03-09 03:33:00,2117E-3,5C000000,-0724,0838,12007,029.4,045.5,0.453,744.0,01.18,0.508
2015-03-09 03:34:00,2255E-3,5C000000,-0724,0837,12197,029.4,045.5,0.453,743.9,01.18,0.508
2015-03-09 03:35:00,2123E-3,5C000000,-0724,0838,12140,029.4,045.5,0.453,743.9,01.18,0.508
2015-03-09 03:36:00,2256E-3,5C000000,-0724,0838,12011,029.5,045.5,0.453,743.8,01.18,0.508
2015-03-09 03:37:00,2116E-3,5C000000,-0724,0838,12161,029.4,045.5,0.452,743.9,01.18,0.508
2015-03-09 03:38:00,2119E-3,5C000000,-0724,0838,12089,029.5,045.5,0.452,743.8,01.18,0.508
2015-03-09 03:39:00,2076E-3,5C000000,-0724,0837,12089,029.5,045.5,0.453,743.8,01.18,0.508
2015-03-09 03:40:00,2162E-3,5C000000,-0724,0838,12028,029.5,045.5,0.453,743.9,01.18,0.508
2015-03-09 03:41:00,2110E-3,5C000000,-0724,0838,12237,029.5,045.5,0.453,743.8,01.18,0.508
2015-03-09 03:42:00,2129E-3,5C000000,-0724,0837,11997,029.5,045.5,0.452,743.8,01.18,0.508
2015-03-09 03:43:00,2217E-3,5C000000,-0724,0837,12190,029.5,045.5,0.452,743.8,01.18,0.508
2015-03-09 03:44:00,1982E-3,5C000000,-0724,0837,12182,029.5,045.5,0.453,743.9,01.18,0.508
2015-03-09 03:45:00,2157E-3,5C000000,-0724,0839,12080,029.5,045.5,0.453,743.7,01.18,0.508
2015-03-09 03:46:00,2088E-3,5C000000,-0724,0836,11969,029.6,045.5,0.453,743.8,01.18,0.508
2015-03-09 03:47:00,2092E-3,5C000000,-0724,0837,12136,029.6,045.5,0.452,743.9,01.18,0.508
2015-03-09 03:48:00,2160E-3,5C000000,-0724,0838,12022,029.6,045.5,0.452,743.9,01.18,0.508
2015-03-09 03:49:00,2170E-3,5C000000,-0724,0838,12113,029.6,045.5,0.452,743.8,01.18,0.508
2015-03-09 03:50:00,2184E-3,5C000000,-0724,0838,12190,029.6,045.5,0.453,743.9,01.18,0.508
2015-03-09 03:51:00,2055E-3,5C000000,-0724,0838,12148,029.6,045.5,0.453,744.0,01.18,0.508
2015-03-09 03:52:00,2157E-3,5C000000,-0724,0837,11941,029.6,045.5,0.452,744.0,01.18,0.508
2015-03-09 03:53:00,2217E-3,5C000000,-0724,0837,12158,029.6,045.5,0.452,744.0,01.18,0.508
2015-03-09 03:54:00,2306E-3,5C000000,-0724,0838,12219,029.6,045.5,0.452,743.8,01.18,0.508
2015-03-09 03:55:00,2194E-3,5C000000,-0724,0837,12121,029.6,045.5,0.453,743.9,01.18,0.508
2015-03-09 03:56:00,2054E-3,5C000000,-0724,0837,12076,029.6,045.5,0.452,744.0,01.18,0.508
2015-03-09 03:57:00,1989E-3,5C000000,-0724,0838,11994,029.6,045.5,0.452,743.8,01.18,0.508
2015-03-09 03:58:00,2218E-3,5C000000,-0724,0837,12188,029.7,045.5,0.452,743.9,01.18,0.508
2015-03-09 03:59:00,2338E-3,5C000000,-0724,0837,12314,029.6,045.5,0.452,744.1,01.18,0.508
2015-03-09 04:00:00,2249E-3,5C000000,-0724,0837,11994,029.6,045.5,0.453,743.9,01.18,0.508
2015-03-09 04:01:00,2099E-3,5C000000,-0724,0838,12015,029.7,045.5,0.452,744.0,01.18,0.508
2015-03-09 04:02:00,2259E-3,5C000000,-0724,0838,12177,029.7,045.5,0.452,744.0,01.18,0.508
2015-03-09 04:03:00,2035E-3,5C000000,-0724,0838,12054,029.7,045.5,0.452,744.0,01.18,0.508
2015-03-09 04:04:00,2059E-3,5C000000,-0724,0839,11947,029.7,045.5,0.452,744.0,01.18,0.508
2015-03-09 04:05:00,2121E-3,5C000000,-0724,0839,12086,029.7,045.5,0.453,744.0,01.18,0.508
2015-03-09 04:06:00,2306E-3,5C000000,-0724,0838,12105,029.7,045.5,0.452,744.1,01.18,0.508
2015-03-09 04:07:00,2180E-3,5C000000,-0724,0838,12074,029.7,045.5,0.452,744.0,01.18,0.508
2015-03-09 04:08:00,1995E-3,5C000000,-0724,0837,11958,029.7,045.5,0.452,744.0,01.18,0.508
2015-03-09 04:09:00,2132E-3,5C000000,-0724,0838,12006,029.7,045.5,0.452,744.0,01.18,0.508
2015-03-09 04:10:00,2318E-3,5C000000,-0724,0838,11946,029.7,045.5,0.452,743.9,01.18,0.508
2015-03-09 04:11:00,2235E-3,5C000000,-0724,0838,12479,029.8,045.5,0.452,744.0,01.18,0.508
2015-03-09 04:12:00,2140E-3,5C000000,-0724,0838,12236,029.8,045.5,0.452,744.0,01.18,0.508
2015-03-09 04:13:00,2130E-3,5C000000,-0724,0839,12232,029.8,045.5,0.452,744.0,01.18,0.508
2015-03-09 04:14:00,2255E-3,5C000000,-0724,0837,12041,029.8,045.5,0.452,744.1,01.18,0.508
2015-03-09 04:15:00,1932E-3,5C000000,-0724,0838,12242,029.8,045.5,0.452,744.1,01.18,0.508
2015-03-09 04:16:00,2161E-3,5C000000,-0724,0839,12005,029.8,045.5,0.452,744.1,01.18,0.508
2015-03-09 04:17:00,2303E-3,5C000000,-0724,0837,12052,029.8,045.5,0.452,744.2,01.18,0.508
2015-03-09 04:18:00,2129E-3,5C000000,-0724,0839,12069,029.8,045.5,0.452,744.1,01.18,0.508
2015-03-09 04:19:00,2170E-3,5C000000,-0724,0838,12225,029.8,045.5,0.452,744.0,01.18,0.508
2015-03-09 04:20:00,2056E-3,5C000000,-0724,0838,11935,029.8,045.5,0.452,744.1,01.18,0.508